Torna al catalogo

DELTA 1 DEB

AttivoSSO
NORAD 21453·DEBRIS·🇺🇸 United States

Lanciato Jun 12, 1975 da Vandenberg Space Force Base

Loading…

Prossimi Passaggi (prossime 24 ore)

TLE

AggiornatoSource: Space-Track

Epoca: Sep 13, 2026, 15:30 UTC

1 21453U 75052EM  26256.64584867  .00000141  00000-0  39565-3 0  9990
2 21453  99.8782  43.1096 0119707 216.8579 154.4061 13.26968976710507

Traccia DELTA 1 DEB in tempo reale con AllMySat

Download on the App Store